Location: Recife
(8.0585°S, 34.8848°W)
Time: 14:47:53
(UTC-03:00)

Tiros 1 despin weight - Pass Details

Date: 20 April 2026
Orbit: 555 x 591 km, 48.2° (Epoch: 14 May)

Event Time Altitude Azimuth Distance (km) Brightness Sun altitude
Rises 11:37:59 0° 251° (WSW) 2,730 ? 69.7°
Reaches altitude 10° 11:41:18 10° 279° (W) 1,828 ? 69.5°
Maximum altitude 11:43:18 13° 308° (NW) 1,625 ? 69.3°
Drops below altitude 10° 11:45:19 10° 337° (NNW) 1,822 ? 69.2°
Sets 11:48:37 0° 5° (N) 2,712 ? 68.9°
